When you browse on this site, cookies collect data to enhance your experience and personalize the content and advertising you see.
Visit our Privacy Policy to learn more. By continuing to use the site, you agree to this use of cookies and data.
  • In Hungary
  • List of Countries
  • For 7 days
  • Water Temperature
  • Satellite Maps
  • Weather Map
  • News
  • Weather Widgets
  • user-avatar
    Login

    Hourly Weather Vitrivka

    Today, 22 July, Monday

    Time Temperature Precipitation Wind Pressure Humidity
    00:00 +22°C° 0 mm 1 mps 750 mmHg 58%
    01:00 +22°C° 0 mm 1 mps 750 mmHg 60%
    02:00 +21°C° 0 mm 1 mps 750 mmHg 59%
    03:00 +21°C° 0 mm 1 mps 750 mmHg 61%
    04:00 +21°C° 0 mm 1 mps 750 mmHg 63%
    05:00 +21°C° 0 mm 1 mps 750 mmHg 65%
    06:00 +23°C° 0 mm 1 mps 750 mmHg 59%
    07:00 +23°C° 0 mm 0 mps 750 mmHg 53%
    08:00 +25°C° 0 mm 0 mps 750 mmHg 47%
    09:00 +29°C° 0 mm 1 mps 750 mmHg 43%
    10:00 +30°C° 0 mm 1 mps 750 mmHg 40%
    11:00 +31°C° 0 mm 2 mps 750 mmHg 36%
    12:00 +31°C° 0 mm 2 mps 750 mmHg 35%
    13:00 +32°C° 0 mm 2 mps 749 mmHg 34%
    14:00 +32°C° 0 mm 1 mps 749 mmHg 33%
    15:00 +31°C° 0 mm 1 mps 749 mmHg 36%
    16:00 +31°C° 0 mm 1 mps 749 mmHg 40%
    17:00 +30°C° 0 mm 1 mps 748 mmHg 43%
    18:00 +29°C° 0 mm 1 mps 748 mmHg 44%
    19:00 +28°C° 0 mm 1 mps 748 mmHg 45%
    20:00 +27°C° 0 mm 1 mps 748 mmHg 46%
    21:00 +25°C° 0.1 mm 2 mps 748 mmHg 53%
    22:00 +24°C° 0.1 mm 3 mps 748 mmHg 60%
    23:00 +22°C° 0.1 mm 3 mps 748 mmHg 68%

    Tomorrow, 23 July, Tuesday

    Time Temperature Precipitation Wind Pressure Humidity
    00:00 +21°C° 0 mm 3 mps 748 mmHg 74%
    01:00 +21°C° 0 mm 3 mps 748 mmHg 80%
    02:00 +20°C° 0 mm 3 mps 747 mmHg 87%
    03:00 +20°C° 0.2 mm 3 mps 747 mmHg 88%
    04:00 +19°C° 0.2 mm 3 mps 747 mmHg 90%
    05:00 +19°C° 0.2 mm 3 mps 747 mmHg 91%
    06:00 +21°C° 0 mm 3 mps 747 mmHg 84%
    07:00 +22°C° 0 mm 3 mps 747 mmHg 77%
    08:00 +24°C° 0 mm 3 mps 747 mmHg 70%
    09:00 +25°C° 0 mm 3 mps 747 mmHg 65%
    10:00 +26°C° 0 mm 3 mps 747 mmHg 60%
    11:00 +27°C° 0 mm 3 mps 746 mmHg 55%
    12:00 +27°C° 0.1 mm 2 mps 746 mmHg 54%
    13:00 +27°C° 0.1 mm 2 mps 746 mmHg 53%
    14:00 +27°C° 0.1 mm 2 mps 745 mmHg 52%
    15:00 +26°C° 1.5 mm 2 mps 746 mmHg 57%
    16:00 +25°C° 1.5 mm 2 mps 746 mmHg 63%
    17:00 +24°C° 1.5 mm 2 mps 746 mmHg 68%
    18:00 +23°C° 0.6 mm 2 mps 745 mmHg 71%
    19:00 +23°C° 0.6 mm 1 mps 745 mmHg 73%
    20:00 +22°C° 0.6 mm 1 mps 745 mmHg 75%
    21:00 +21°C° 0.1 mm 1 mps 745 mmHg 76%
    22:00 +21°C° 0.1 mm 1 mps 745 mmHg 77%
    23:00 +21°C° 0.1 mm 1 mps 745 mmHg 79%

    Day after tomorrow, 24 July, Wednesday

    Time Temperature Precipitation Wind Pressure Humidity
    00:00 +20°C° 0.2 mm 1 mps 745 mmHg 81%
    01:00 +19°C° 0.2 mm 1 mps 745 mmHg 83%
    02:00 +19°C° 0.2 mm 1 mps 745 mmHg 86%
    03:00 +19°C° 0 mm 1 mps 745 mmHg 86%
    04:00 +18°C° 0 mm 1 mps 745 mmHg 86%
    05:00 +18°C° 0 mm 1 mps 745 mmHg 86%
    06:00 +20°C° 0 mm 1 mps 745 mmHg 79%
    07:00 +21°C° 0 mm 1 mps 745 mmHg 73%
    08:00 +22°C° 0 mm 1 mps 745 mmHg 67%
    09:00 +24°C° 0.2 mm 1 mps 745 mmHg 61%
    10:00 +25°C° 0.2 mm 2 mps 744 mmHg 56%
    11:00 +26°C° 0.2 mm 2 mps 744 mmHg 50%
    12:00 +26°C° 0.1 mm 2 mps 744 mmHg 47%
    13:00 +27°C° 0.1 mm 2 mps 744 mmHg 44%
    14:00 +27°C° 0.1 mm 2 mps 744 mmHg 40%
    15:00 +27°C° 0 mm 3 mps 743 mmHg 45%
    16:00 +26°C° 0 mm 3 mps 743 mmHg 49%
    17:00 +26°C° 0 mm 3 mps 743 mmHg 53%
    18:00 +24°C° 0 mm 2 mps 743 mmHg 59%
    19:00 +23°C° 0 mm 2 mps 743 mmHg 65%
    20:00 +21°C° 0 mm 1 mps 743 mmHg 70%
    21:00 +21°C° 0 mm 1 mps 743 mmHg 74%
    22:00 +20°C° 0 mm 1 mps 743 mmHg 77%
    23:00 +19°C° 0 mm 1 mps 743 mmHg 80%

    25 July, Thursday

    Time Temperature Precipitation Wind Pressure Humidity
    00:00 +19°C° 0.1 mm 1 mps 743 mmHg 83%
    01:00 +18°C° 0.1 mm 1 mps 743 mmHg 86%
    02:00 +18°C° 0.1 mm 1 mps 743 mmHg 88%
    03:00 +18°C° 0.3 mm 1 mps 743 mmHg 90%
    04:00 +18°C° 0.3 mm 1 mps 744 mmHg 91%
    05:00 +18°C° 0.3 mm 1 mps 744 mmHg 92%
    06:00 +18°C° 0.3 mm 2 mps 744 mmHg 87%
    07:00 +19°C° 0.3 mm 2 mps 744 mmHg 82%
    08:00 +20°C° 0.3 mm 3 mps 744 mmHg 76%
    09:00 +21°C° 1.3 mm 3 mps 744 mmHg 74%
    10:00 +22°C° 1.3 mm 4 mps 744 mmHg 72%
    11:00 +22°C° 1.3 mm 5 mps 744 mmHg 70%
    12:00 +22°C° 1.3 mm 5 mps 744 mmHg 70%
    13:00 +22°C° 1.3 mm 5 mps 744 mmHg 70%
    14:00 +22°C° 1.3 mm 5 mps 743 mmHg 70%
    15:00 +22°C° 0.6 mm 5 mps 743 mmHg 69%
    16:00 +22°C° 0.6 mm 5 mps 743 mmHg 69%
    17:00 +22°C° 0.6 mm 5 mps 743 mmHg 68%
    18:00 +21°C° 0.3 mm 5 mps 743 mmHg 73%
    19:00 +19°C° 0.3 mm 5 mps 743 mmHg 78%
    20:00 +17°C° 0.3 mm 5 mps 743 mmHg 84%
    21:00 +18°C° 0.8 mm 4 mps 743 mmHg 86%
    22:00 +18°C° 0.8 mm 4 mps 743 mmHg 88%
    23:00 +18°C° 0.8 mm 3 mps 744 mmHg 91%

    26 July, Friday

    Time Temperature Precipitation Wind Pressure Humidity
    00:00 +18°C° 0.4 mm 4 mps 743 mmHg 92%
    01:00 +17°C° 0.4 mm 4 mps 743 mmHg 93%
    02:00 +17°C° 0.4 mm 4 mps 743 mmHg 94%
    03:00 +17°C° 0.2 mm 4 mps 743 mmHg 95%
    04:00 +17°C° 0.2 mm 4 mps 743 mmHg 95%
    05:00 +17°C° 0.2 mm 4 mps 743 mmHg 95%
    06:00 +17°C° 0 mm 5 mps 743 mmHg 92%
    07:00 +19°C° 0 mm 5 mps 743 mmHg 89%
    08:00 +20°C° 0 mm 5 mps 743 mmHg 86%
    09:00 +21°C° 0.3 mm 5 mps 743 mmHg 80%
    10:00 +22°C° 0.3 mm 5 mps 743 mmHg 75%
    11:00 +25°C° 0.3 mm 5 mps 743 mmHg 69%
    12:00 +25°C° 0.8 mm 5 mps 743 mmHg 65%
    13:00 +26°C° 0.8 mm 4 mps 743 mmHg 60%
    14:00 +27°C° 0.8 mm 4 mps 743 mmHg 56%
    15:00 +27°C° 0.3 mm 4 mps 743 mmHg 57%
    16:00 +27°C° 0.3 mm 4 mps 743 mmHg 58%
    17:00 +26°C° 0.3 mm 4 mps 743 mmHg 59%
    18:00 +25°C° 0 mm 4 mps 743 mmHg 66%
    19:00 +22°C° 0 mm 4 mps 744 mmHg 73%
    20:00 +21°C° 0 mm 4 mps 744 mmHg 80%
    21:00 +20°C° 0 mm 4 mps 744 mmHg 84%
    22:00 +20°C° 0 mm 4 mps 744 mmHg 88%
    23:00 +19°C° 0 mm 4 mps 744 mmHg 92%

    27 July, Saturday

    Time Temperature Precipitation Wind Pressure Humidity
    00:00 +19°C° 0 mm 4 mps 744 mmHg 93%
    01:00 +18°C° 0 mm 3 mps 744 mmHg 94%
    02:00 +18°C° 0 mm 3 mps 744 mmHg 96%
    03:00 +18°C° 0 mm 3 mps 744 mmHg 96%
    04:00 +18°C° 0 mm 4 mps 744 mmHg 96%
    05:00 +18°C° 0 mm 4 mps 744 mmHg 96%
    06:00 +19°C° 0 mm 4 mps 744 mmHg 88%
    07:00 +21°C° 0 mm 4 mps 744 mmHg 80%
    08:00 +23°C° 0 mm 5 mps 744 mmHg 73%
    09:00 +25°C° 0 mm 5 mps 744 mmHg 68%
    10:00 +26°C° 0 mm 5 mps 744 mmHg 63%
    11:00 +27°C° 0 mm 5 mps 744 mmHg 58%
    12:00 +28°C° 0.5 mm 6 mps 744 mmHg 57%
    13:00 +28°C° 0.5 mm 6 mps 743 mmHg 56%
    14:00 +29°C° 0.5 mm 6 mps 743 mmHg 55%
    15:00 +28°C° 0.6 mm 6 mps 743 mmHg 57%
    16:00 +28°C° 0.6 mm 6 mps 743 mmHg 59%
    17:00 +27°C° 0.6 mm 6 mps 743 mmHg 61%
    18:00 +26°C° 0.3 mm 5 mps 743 mmHg 67%
    19:00 +23°C° 0.3 mm 5 mps 743 mmHg 74%
    20:00 +22°C° 0.3 mm 4 mps 743 mmHg 80%
    21:00 +21°C° 0 mm 4 mps 744 mmHg 82%
    22:00 +21°C° 0 mm 4 mps 744 mmHg 83%
    23:00 +20°C° 0 mm 4 mps 744 mmHg 85%
    Show more